Location: Hradec Kralove
(50.2170°N, 15.8330°E)
Time: 01:19:01
(UTC+02:00)

AO-73 - Pass Details

Date: 20 September 2024
Orbit: 549 x 616 km, 97.7° (Epoch: 04 October)

Event Time Altitude Azimuth Distance (km) Brightness Sun altitude
Rises 03:23:51 0° 23° (NNE) 2,800 ? -29.2°
Reaches altitude 10° 03:26:18 10° 36° (NE) 1,883 ? -28.9°
Maximum altitude 03:29:45 26° 94° (E) 1,120 ? -28.5°
Enters shadow 03:29:53 26° 97° (E) 1,121 ? -28.5°
